Time,TemperatureF,DewpointF,PressureIn,WindDirection,WindDirectionDegrees,WindSpeedMPH,WindSpeedGustMPH,Humidity,HourlyPrecipIn,Conditions,Clouds,dailyrainin,SoftwareType,DateUTC
2013-02-14 00:10:00,30.8,29.0,29.70,ENE,71,0.0,3.0,94,0.00,,,0.00,weatherlink.com 1.10,2013-02-14 05:10:00,
2013-02-14 00:25:00,30.5,29.0,29.70,ENE,71,0.0,0.0,94,0.00,,,0.00,weatherlink.com 1.10,2013-02-14 05:25:00,
2013-02-14 00:40:00,30.2,29.0,29.70,ENE,71,0.0,0.0,95,0.00,,,0.00,weatherlink.com 1.10,2013-02-14 05:40:00,
2013-02-14 00:55:00,30.0,29.0,29.70,ENE,71,0.0,0.0,95,0.00,,,0.00,weatherlink.com 1.10,2013-02-14 05:55:00,
2013-02-14 01:10:00,29.8,29.0,29.71,ENE,71,0.0,0.0,95,0.00,,,0.00,weatherlink.com 1.10,2013-02-14 06:10:00,
2013-02-14 01:25:00,29.4,28.0,29.71,ENE,71,0.0,0.0,95,0.00,,,0.00,weatherlink.com 1.10,2013-02-14 06:25:00,
2013-02-14 01:40:00,29.3,28.0,29.72,ENE,71,0.0,0.0,95,0.00,,,0.00,weatherlink.com 1.10,2013-02-14 06:40:00,
2013-02-14 01:55:00,29.3,28.0,29.73,ENE,71,0.0,0.0,95,0.00,,,0.00,weatherlink.com 1.10,2013-02-14 06:55:00,
2013-02-14 02:10:00,29.7,29.0,29.74,ENE,71,0.0,0.0,96,0.00,,,0.00,weatherlink.com 1.10,2013-02-14 07:10:00,
2013-02-14 02:25:00,29.9,29.0,29.74,ENE,71,0.0,1.0,95,0.00,,,0.00,weatherlink.com 1.10,2013-02-14 07:25:00,
2013-02-14 02:40:00,30.2,29.0,29.75,ENE,71,0.0,0.0,95,0.00,,,0.00,weatherlink.com 1.10,2013-02-14 07:40:00,
2013-02-14 02:55:00,30.1,29.0,29.75,ENE,71,0.0,2.0,95,0.00,,,0.00,weatherlink.com 1.10,2013-02-14 07:55:00,
2013-02-14 03:10:00,29.9,29.0,29.76,ENE,71,0.0,0.0,95,0.00,,,0.00,weatherlink.com 1.10,2013-02-14 08:10:00,
2013-02-14 03:25:00,29.9,29.0,29.77,ENE,71,0.0,0.0,95,0.00,,,0.00,weatherlink.com 1.10,2013-02-14 08:25:00,
2013-02-14 03:40:00,29.4,28.0,29.77,ENE,71,0.0,2.0,95,0.00,,,0.00,weatherlink.com 1.10,2013-02-14 08:40:00,
2013-02-14 03:55:00,29.3,28.0,29.78,East,96,0.0,3.0,95,0.00,,,0.00,weatherlink.com 1.10,2013-02-14 08:55:00,
2013-02-14 04:10:00,28.4,27.0,29.77,East,96,0.0,1.0,94,0.00,,,0.00,weatherlink.com 1.10,2013-02-14 09:10:00,
2013-02-14 04:25:00,27.9,26.0,29.78,East,96,0.0,1.0,93,0.00,,,0.00,weatherlink.com 1.10,2013-02-14 09:25:00,
2013-02-14 04:40:00,27.2,25.0,29.79,East,96,0.0,1.0,92,0.00,,,0.00,weatherlink.com 1.10,2013-02-14 09:40:00,
2013-02-14 04:55:00,26.8,25.0,29.79,East,96,2.0,2.0,91,0.00,,,0.00,weatherlink.com 1.10,2013-02-14 09:55:00,
2013-02-14 05:10:00,26.9,25.0,29.80,East,96,0.0,2.0,91,0.00,,,0.00,weatherlink.com 1.10,2013-02-14 10:10:00,
2013-02-14 05:25:00,26.6,24.0,29.80,East,96,2.0,2.0,91,0.00,,,0.00,weatherlink.com 1.10,2013-02-14 10:25:00,
2013-02-14 05:40:00,26.6,24.0,29.81,ESE,115,0.0,3.0,89,0.00,,,0.00,weatherlink.com 1.10,2013-02-14 10:40:00,
2013-02-14 05:55:00,26.5,23.0,29.81,ESE,114,0.0,3.0,88,0.00,,,0.00,weatherlink.com 1.10,2013-02-14 10:55:00,
2013-02-14 06:10:00,26.7,23.0,29.81,ESE,111,0.0,3.0,86,0.00,,,0.00,weatherlink.com 1.10,2013-02-14 11:10:00,
2013-02-14 06:25:00,26.2,22.0,29.82,ESE,112,2.0,2.0,85,0.00,,,0.00,weatherlink.com 1.10,2013-02-14 11:25:00,
2013-02-14 06:40:00,26.2,22.0,29.83,ESE,117,0.0,3.0,85,0.00,,,0.00,weatherlink.com 1.10,2013-02-14 11:40:00,
2013-02-14 06:55:00,25.3,22.0,29.84,ESE,117,0.0,2.0,86,0.00,,,0.00,weatherlink.com 1.10,2013-02-14 11:55:00,
2013-02-14 07:10:00,24.9,22.0,29.85,ESE,117,0.0,1.0,87,0.00,,,0.00,weatherlink.com 1.10,2013-02-14 12:10:00,
2013-02-14 07:25:00,24.8,21.0,29.86,ESE,117,0.0,0.0,86,0.00,,,0.00,weatherlink.com 1.10,2013-02-14 12:25:00,
2013-02-14 07:40:00,24.9,22.0,29.88,ESE,117,0.0,0.0,87,0.00,,,0.00,weatherlink.com 1.10,2013-02-14 12:40:00,
2013-02-14 07:55:00,25.7,22.0,29.88,ESE,117,1.0,2.0,86,0.00,,,0.00,weatherlink.com 1.10,2013-02-14 12:55:00,
2013-02-14 08:10:00,27.7,23.0,29.89,ESE,109,0.0,3.0,81,0.00,,,0.00,weatherlink.com 1.10,2013-02-14 13:10:00,
2013-02-14 08:25:00,25.9,22.0,29.90,NNW,333,1.0,3.0,85,0.00,,,0.00,weatherlink.com 1.10,2013-02-14 13:25:00,
2013-02-14 08:40:00,27.8,24.0,29.90,NNW,333,0.0,1.0,85,0.00,,,0.00,weatherlink.com 1.10,2013-02-14 13:40:00,
2013-02-14 08:56:00,30.4,24.0,29.91,NNE,20,1.0,5.0,77,0.00,,,0.00,weatherlink.com 1.10,2013-02-14 13:56:00,
2013-02-14 09:11:00,31.2,24.0,29.91,East,90,3.0,8.0,74,0.00,,,0.00,weatherlink.com 1.10,2013-02-14 14:11:00,
2013-02-14 09:26:00,31.9,24.0,29.92,ENE,59,3.0,8.0,73,0.01,,,0.01,weatherlink.com 1.10,2013-02-14 14:26:00,
2013-02-14 09:41:00,32.8,24.0,29.92,East,87,6.0,12.0,69,0.01,,,0.01,weatherlink.com 1.10,2013-02-14 14:41:00,
2013-02-14 09:56:00,33.6,24.0,29.92,ENE,76,4.0,6.0,69,0.02,,,0.02,weatherlink.com 1.10,2013-02-14 14:56:00,
2013-02-14 10:11:00,34.5,25.0,29.92,East,79,5.0,5.0,69,0.02,,,0.02,weatherlink.com 1.10,2013-02-14 15:11:00,
2013-02-14 10:26:00,34.8,24.0,29.92,East,91,2.0,8.0,66,0.01,,,0.02,weatherlink.com 1.10,2013-02-14 15:26:00,
2013-02-14 10:41:00,35.1,24.0,29.93,NE,36,5.0,10.0,63,0.01,,,0.02,weatherlink.com 1.10,2013-02-14 15:41:00,
2013-02-14 10:56:00,36.2,24.0,29.92,ESE,116,1.0,7.0,61,0.00,,,0.02,weatherlink.com 1.10,2013-02-14 15:56:00,
2013-02-14 11:11:00,36.7,25.0,29.91,East,82,3.0,9.0,62,0.00,,,0.02,weatherlink.com 1.10,2013-02-14 16:11:00,
2013-02-14 11:26:00,36.9,23.0,29.91,NNE,14,2.0,9.0,58,0.00,,,0.02,weatherlink.com 1.10,2013-02-14 16:26:00,
2013-02-14 11:41:00,36.9,23.0,29.91,ENE,76,5.0,9.0,57,0.00,,,0.02,weatherlink.com 1.10,2013-02-14 16:41:00,
2013-02-14 11:56:00,38.0,24.0,29.90,ENE,67,9.0,10.0,57,0.00,,,0.02,weatherlink.com 1.10,2013-02-14 16:56:00,
2013-02-14 12:11:00,38.4,23.0,29.89,East,79,0.0,4.0,55,0.00,,,0.02,weatherlink.com 1.10,2013-02-14 17:11:00,
2013-02-14 12:26:00,38.8,23.0,29.89,NNW,343,2.0,11.0,53,0.00,,,0.02,weatherlink.com 1.10,2013-02-14 17:26:00,
2013-02-14 12:41:00,39.2,24.0,29.90,NNW,334,3.0,7.0,55,0.00,,,0.02,weatherlink.com 1.10,2013-02-14 17:41:00,
2013-02-14 12:56:00,39.2,23.0,29.89,NNW,329,0.0,7.0,53,0.00,,,0.02,weatherlink.com 1.10,2013-02-14 17:56:00,
2013-02-14 13:11:00,39.0,23.0,29.89,West,271,0.0,5.0,52,0.00,,,0.02,weatherlink.com 1.10,2013-02-14 18:11:00,
2013-02-14 13:26:00,39.6,24.0,29.89,SSW,212,0.0,7.0,53,0.00,,,0.02,weatherlink.com 1.10,2013-02-14 18:26:00,
2013-02-14 13:41:00,39.7,24.0,29.89,West,276,2.0,7.0,53,0.00,,,0.02,weatherlink.com 1.10,2013-02-14 18:41:00,
2013-02-14 13:57:00,40.9,26.0,29.89,NW,310,0.0,7.0,55,0.00,,,0.02,weatherlink.com 1.10,2013-02-14 18:57:00,
2013-02-14 14:27:00,40.4,25.0,29.88,WNW,293,3.0,9.0,54,0.00,,,0.02,weatherlink.com 1.10,2013-02-14 19:27:00,
2013-02-14 14:42:00,40.2,25.0,29.89,West,268,3.0,9.0,55,0.00,,,0.02,weatherlink.com 1.10,2013-02-14 19:42:00,
2013-02-14 14:57:00,41.0,26.0,29.89,WNW,301,8.0,9.0,55,0.00,,,0.02,weatherlink.com 1.10,2013-02-14 19:57:00,
2013-02-14 15:12:00,40.9,27.0,29.89,West,265,5.0,10.0,57,0.00,,,0.02,weatherlink.com 1.10,2013-02-14 20:12:00,
2013-02-14 15:27:00,41.1,26.0,29.89,WSW,247,4.0,11.0,56,0.00,,,0.02,weatherlink.com 1.10,2013-02-14 20:27:00,
2013-02-14 15:42:00,41.1,26.0,29.88,West,274,2.0,9.0,55,0.00,,,0.02,weatherlink.com 1.10,2013-02-14 20:42:00,
2013-02-14 15:57:00,41.0,26.0,29.89,West,269,5.0,9.0,56,0.00,,,0.02,weatherlink.com 1.10,2013-02-14 20:57:00,
2013-02-14 16:12:00,41.1,26.0,29.89,WSW,252,7.0,9.0,56,0.00,,,0.02,weatherlink.com 1.10,2013-02-14 21:12:00,
2013-02-14 16:27:00,41.3,26.0,29.89,West,274,6.0,8.0,54,0.00,,,0.02,weatherlink.com 1.10,2013-02-14 21:27:00,
2013-02-14 16:42:00,40.7,25.0,29.89,WSW,248,7.0,9.0,55,0.00,,,0.02,weatherlink.com 1.10,2013-02-14 21:42:00,
2013-02-14 16:57:00,39.6,25.0,29.90,WSW,251,3.0,8.0,57,0.00,,,0.02,weatherlink.com 1.10,2013-02-14 21:57:00,
2013-02-14 17:12:00,39.1,26.0,29.90,SW,236,3.0,6.0,59,0.00,,,0.02,weatherlink.com 1.10,2013-02-14 22:12:00,
2013-02-14 17:27:00,38.6,26.0,29.91,WSW,242,5.0,6.0,60,0.00,,,0.02,weatherlink.com 1.10,2013-02-14 22:27:00,
2013-02-14 17:42:00,38.3,26.0,29.92,WSW,237,4.0,8.0,61,0.00,,,0.02,weatherlink.com 1.10,2013-02-14 22:42:00,
2013-02-14 17:57:00,37.3,26.0,29.93,SW,231,2.0,5.0,63,0.00,,,0.02,weatherlink.com 1.10,2013-02-14 22:57:00,
2013-02-14 18:12:00,36.6,26.0,29.92,SSW,202,4.0,5.0,65,0.00,,,0.02,weatherlink.com 1.10,2013-02-14 23:12:00,
2013-02-14 18:27:00,35.0,26.0,29.93,SSW,202,3.0,5.0,69,0.00,,,0.02,weatherlink.com 1.10,2013-02-14 23:27:00,
2013-02-14 18:42:00,34.6,25.0,29.93,SW,217,3.0,6.0,69,0.00,,,0.02,weatherlink.com 1.10,2013-02-14 23:42:00,
2013-02-14 18:57:00,35.3,26.0,29.93,SSW,207,5.0,6.0,68,0.00,,,0.02,weatherlink.com 1.10,2013-02-14 23:57:00,
2013-02-14 19:12:00,35.2,26.0,29.93,SSW,199,4.0,6.0,69,0.00,,,0.02,weatherlink.com 1.10,2013-02-15 00:12:00,
2013-02-14 19:27:00,35.2,26.0,29.94,SSW,197,5.0,6.0,69,0.00,,,0.02,weatherlink.com 1.10,2013-02-15 00:27:00,
2013-02-14 19:42:00,34.4,26.0,29.94,SSW,210,5.0,6.0,71,0.00,,,0.02,weatherlink.com 1.10,2013-02-15 00:42:00,
2013-02-14 19:57:00,34.8,26.0,29.94,SSW,204,5.0,7.0,70,0.00,,,0.02,weatherlink.com 1.10,2013-02-15 00:57:00,
2013-02-14 20:12:00,34.5,26.0,29.95,SSW,212,6.0,7.0,71,0.00,,,0.02,weatherlink.com 1.10,2013-02-15 01:12:00,
2013-02-14 20:27:00,35.0,26.0,29.94,SSW,211,4.0,8.0,70,0.00,,,0.02,weatherlink.com 1.10,2013-02-15 01:27:00,
2013-02-14 20:42:00,34.8,26.0,29.94,SSW,213,5.0,7.0,71,0.00,,,0.02,weatherlink.com 1.10,2013-02-15 01:42:00,
2013-02-14 20:57:00,34.7,26.0,29.95,SSW,213,6.0,8.0,71,0.00,,,0.02,weatherlink.com 1.10,2013-02-15 01:57:00,
2013-02-14 21:12:00,34.7,28.0,29.95,SW,215,6.0,7.0,76,0.00,,,0.02,weatherlink.com 1.10,2013-02-15 02:12:00,
2013-02-14 21:27:00,34.6,26.0,29.95,SSW,213,5.0,7.0,72,0.00,,,0.02,weatherlink.com 1.10,2013-02-15 02:27:00,
2013-02-14 21:42:00,34.5,27.0,29.95,SW,215,7.0,7.0,73,0.00,,,0.02,weatherlink.com 1.10,2013-02-15 02:42:00,
2013-02-14 21:57:00,34.4,26.0,29.95,SSW,211,6.0,8.0,72,0.00,,,0.02,weatherlink.com 1.10,2013-02-15 02:57:00,
2013-02-14 22:12:00,34.2,26.0,29.96,SSW,207,4.0,6.0,73,0.00,,,0.02,weatherlink.com 1.10,2013-02-15 03:12:00,
2013-02-14 22:27:00,34.6,26.0,29.96,SSW,211,4.0,6.0,72,0.00,,,0.02,weatherlink.com 1.10,2013-02-15 03:27:00,
2013-02-14 22:42:00,34.0,26.0,29.96,SW,215,6.0,7.0,73,0.00,,,0.02,weatherlink.com 1.10,2013-02-15 03:42:00,
2013-02-14 22:57:00,33.8,26.0,29.95,SSW,213,4.0,6.0,73,0.00,,,0.02,weatherlink.com 1.10,2013-02-15 03:57:00,
2013-02-14 23:12:00,33.0,26.0,29.95,SW,217,4.0,6.0,75,0.00,,,0.02,weatherlink.com 1.10,2013-02-15 04:12:00,
2013-02-14 23:27:00,33.7,26.0,29.96,SW,217,5.0,6.0,74,0.00,,,0.02,weatherlink.com 1.10,2013-02-15 04:27:00,
2013-02-14 23:42:00,33.9,26.0,29.96,SW,226,3.0,7.0,73,0.00,,,0.02,weatherlink.com 1.10,2013-02-15 04:42:00,
2013-02-14 23:57:00,33.4,26.0,29.96,SSW,213,4.0,6.0,74,0.00,,,0.02,weatherlink.com 1.10,2013-02-15 04:57:00,